| time (UTC) | temp F | wind direction | speed MPH | gust MPH | rain 1hr in | rain 24hr in | rain mn in | humidity % | barometer mb |
| 20260902044004 | 75 | 315 | 2.0 | 4.0 | 0.00 | 0.00 | 0.00 | 80 | 1014.3 |
| 20260902043504 | 75 | 308 | 3.0 | 4.0 | 0.00 | 0.00 | 0.00 | 80 | 1014.3 |
| 20260902043004 | 76 | 287 | 2.0 | 4.0 | 0.00 | 0.00 | 0.00 | 80 | 1014.3 |
| 20260902042504 | 76 | 245 | 1.0 | 3.0 | 0.00 | 0.00 | 0.00 | 81 | 1014.3 |
| 20260902042004 | 76 | 180 | 0.0 | 2.0 | 0.00 | 0.00 | 0.00 | 81 | 1013.3 |
| 20260902041505 | 76 | 315 | 0.0 | 2.0 | 0.00 | 0.00 | 0.00 | 81 | 1013.3 |
| 20260902041215 | 76 | 299 | 1.0 | 2.0 | 0.00 | 0.00 | 0.00 | 81 | 1013.3 |
| 20260902040717 | 76 | 285 | 1.0 | 2.0 | 0.00 | 0.00 | 0.00 | 82 | 1013.3 |
| 20260902040004 | 76 | 274 | 1.0 | 2.0 | 0.00 | 0.00 | 0.00 | 82 | 1013.3 |
| 20260902035504 | 76 | 257 | 1.0 | 5.0 | 0.00 | 0.00 | 0.00 | 83 | 1013.3 |
| 20260902035004 | 76 | 284 | 1.0 | 5.0 | 0.00 | 0.00 | 0.00 | 83 | 1013.3 |
| 20260902034505 | 76 | 33 | 1.0 | 2.0 | 0.00 | 0.00 | 0.00 | 83 | 1013.3 |
| 20260902034003 | 76 | 83 | 1.0 | 3.0 | 0.00 | 0.00 | 0.00 | 83 | 1013.3 |
| 20260902033503 | 76 | 90 | 0.0 | 3.0 | 0.00 | 0.00 | 0.00 | 83 | 1013.3 |
| 20260902033003 | 76 | 337 | 0.0 | 2.0 | 0.00 | 0.00 | 0.00 | 83 | 1013.3 |
| 20260902032504 | 76 | 356 | 2.0 | 4.0 | 0.00 | 0.00 | 0.00 | 83 | 1013.3 |
| 20260902032004 | 76 | 7 | 2.0 | 4.0 | 0.00 | 0.00 | 0.00 | 84 | 1013.3 |
| 20260902031505 | 77 | 29 | 2.0 | 5.0 | 0.00 | 0.00 | 0.00 | 84 | 1013.3 |
| 20260902031003 | 77 | 37 | 3.0 | 5.0 | 0.00 | 0.00 | 0.00 | 84 | 1013.3 |
| 20260902030504 | 77 | 32 | 3.0 | 4.0 | 0.00 | 0.00 | 0.00 | 84 | 1013.3 |
| 20260902030003 | 77 | 28 | 3.0 | 5.0 | 0.00 | 0.00 | 0.00 | 85 | 1013.3 |
| 20260902025504 | 77 | 28 | 5.0 | 8.0 | 0.00 | 0.00 | 0.00 | 84 | 1013.3 |
| 20260902025003 | 77 | 34 | 6.0 | 8.0 | 0.00 | 0.00 | 0.00 | 86 | 1013.3 |
| 20260902024505 | 77 | 48 | 5.0 | 8.0 | 0.00 | 0.00 | 0.00 | 86 | 1013.3 |
| 20260902024003 | 76 | 42 | 5.0 | 11.0 | 0.00 | 0.00 | 0.00 | 86 | 1013.3 |
| 20260902023715 | 76 | 39 | 5.0 | 11.0 | 0.00 | 0.00 | 0.00 | 86 | 1013.3 |
| 20260902023004 | 76 | 19 | 4.0 | 5.0 | 0.00 | 0.00 | 0.00 | 86 | 1014.3 |
| 20260902022503 | 75 | 15 | 3.0 | 5.0 | 0.00 | 0.00 | 0.00 | 85 | 1014.3 |
| 20260902022003 | 75 | 7 | 3.0 | 5.0 | 0.00 | 0.00 | 0.00 | 85 | 1014.3 |
| 20260902021503 | 75 | 15 | 3.0 | 5.0 | 0.00 | 0.00 | 0.00 | 84 | 1014.3 |
| 20260902021216 | 75 | 19 | 3.0 | 5.0 | 0.00 | 0.00 | 0.00 | 84 | 1014.3 |
| 20260902020503 | 75 | 16 | 3.0 | 4.0 | 0.00 | 0.00 | 0.00 | 83 | 1014.3 |
| 20260902020005 | 75 | 13 | 3.0 | 4.0 | 0.00 | 0.00 | 0.00 | 83 | 1014.3 |
| 20260902015503 | 75 | 24 | 3.0 | 4.0 | 0.00 | 0.00 | 0.00 | 83 | 1014.3 |
| 20260902015003 | 76 | 35 | 2.0 | 3.0 | 0.00 | 0.00 | 0.00 | 82 | 1014.3 |
| 20260902014503 | 76 | 35 | 1.0 | 3.0 | 0.00 | 0.00 | 0.00 | 82 | 1014.3 |
| 20260902014003 | 76 | 45 | 0.0 | 2.0 | 0.00 | 0.00 | 0.00 | 82 | 1014.3 |
| 20260902013503 | 76 | 0 | 0.0 | 0.0 | 0.00 | 0.00 | 0.00 | 82 | 1014.3 |
| 20260902013214 | 76 | 22 | 0.0 | 2.0 | 0.00 | 0.00 | 0.00 | 82 | 1014.3 |
| 20260902012503 | 76 | 22 | 0.0 | 2.0 | 0.00 | 0.00 | 0.00 | 82 | 1014.3 |
| 20260902012003 | 76 | 32 | 0.0 | 2.0 | 0.00 | 0.00 | 0.00 | 82 | 1014.3 |
| 20260902011503 | 76 | 25 | 0.0 | 2.0 | 0.00 | 0.00 | 0.00 | 82 | 1014.3 |
| 20260902011003 | 76 | 360 | 0.0 | 2.0 | 0.00 | 0.00 | 0.00 | 82 | 1014.3 |
| 20260902010504 | 75 | 360 | 0.0 | 2.0 | 0.00 | 0.00 | 0.00 | 81 | 1014.3 |
| 20260902010005 | 75 | 360 | 0.0 | 2.0 | 0.00 | 0.00 | 0.00 | 81 | 1014.3 |
| 20260902005505 | 76 | 4 | 1.0 | 3.0 | 0.00 | 0.00 | 0.00 | 81 | 1014.3 |
| 20260902005218 | 76 | 21 | 1.0 | 4.0 | 0.00 | 0.00 | 0.00 | 81 | 1014.3 |
| 20260902004504 | 76 | 32 | 1.0 | 4.0 | 0.00 | 0.00 | 0.00 | 81 | 1014.3 |
| 20260902004005 | 76 | 45 | 0.0 | 1.0 | 0.00 | 0.00 | 0.00 | 81 | 1014.3 |
| 20260902003717 | 76 | 0 | 0.0 | 0.0 | 0.00 | 0.00 | 0.00 | 80 | 1014.3 |
| 20260902003005 | 76 | 3 | 1.0 | 2.0 | 0.00 | 0.00 | 0.00 | 80 | 1014.3 |
| 20260902002504 | 76 | 35 | 2.0 | 4.0 | 0.00 | 0.00 | 0.00 | 80 | 1014.3 |
| 20260902002004 | 76 | 48 | 2.0 | 4.0 | 0.00 | 0.00 | 0.00 | 80 | 1014.3 |
| 20260902001714 | 76 | 42 | 2.0 | 4.0 | 0.00 | 0.00 | 0.00 | 80 | 1014.3 |
| 20260902001005 | 75 | 22 | 0.0 | 3.0 | 0.00 | 0.00 | 0.00 | 79 | 1014.3 |
| 20260902000504 | 75 | 315 | 0.0 | 2.0 | 0.00 | 0.00 | 0.00 | 78 | 1014.3 |
| 20260902000004 | 75 | 315 | 1.0 | 2.0 | 0.00 | 0.00 | 0.00 | 78 | 1014.3 |
| 20260901235716 | 75 | 321 | 1.0 | 2.0 | 0.00 | 0.00 | 0.00 | 78 | 1014.3 |
| 20260901235004 | 75 | 5 | 1.0 | 3.0 | 0.00 | 0.00 | 0.00 | 78 | 1014.3 |
| 20260901234504 | 75 | 350 | 2.0 | 3.0 | 0.00 | 0.00 | 0.00 | 78 | 1014.3 |
| 20260901234004 | 76 | 332 | 1.0 | 3.0 | 0.00 | 0.00 | 0.00 | 77 | 1014.3 |
| 20260901233504 | 76 | 315 | 1.0 | 4.0 | 0.00 | 0.00 | 0.00 | 77 | 1014.3 |
| 20260901233003 | 76 | 323 | 3.0 | 7.0 | 0.00 | 0.00 | 0.00 | 77 | 1014.3 |
| 20260901232504 | 76 | 320 | 5.0 | 7.0 | 0.00 | 0.00 | 0.00 | 76 | 1014.3 |
| 20260901232003 | 76 | 320 | 5.0 | 6.0 | 0.00 | 0.00 | 0.00 | 76 | 1014.3 |
| 20260901231503 | 76 | 314 | 5.0 | 6.0 | 0.00 | 0.00 | 0.00 | 76 | 1014.3 |
| 20260901231004 | 76 | 315 | 4.0 | 5.0 | 0.00 | 0.00 | 0.00 | 76 | 1014.3 |
| 20260901230503 | 76 | 321 | 4.0 | 6.0 | 0.00 | 0.00 | 0.00 | 76 | 1014.3 |
| 20260901230004 | 76 | 323 | 4.0 | 6.0 | 0.00 | 0.00 | 0.00 | 75 | 1014.3 |
| 20260901225503 | 76 | 315 | 3.0 | 5.0 | 0.00 | 0.00 | 0.00 | 75 | 1014.3 |
| 20260901225003 | 76 | 312 | 3.0 | 4.0 | 0.00 | 0.00 | 0.00 | 75 | 1014.3 |
| 20260901224503 | 77 | 315 | 3.0 | 4.0 | 0.00 | 0.00 | 0.00 | 75 | 1014.3 |
| 20260901224003 | 77 | 311 | 2.0 | 4.0 | 0.00 | 0.00 | 0.00 | 74 | 1014.3 |
| 20260901223503 | 77 | 279 | 2.0 | 3.0 | 0.00 | 0.00 | 0.00 | 74 | 1014.3 |
| 20260901223216 | 77 | 284 | 3.0 | 6.0 | 0.00 | 0.00 | 0.00 | 74 | 1014.3 |
| 20260901222503 | 77 | 302 | 3.0 | 6.0 | 0.00 | 0.00 | 0.00 | 73 | 1014.3 |
| 20260901222003 | 78 | 321 | 2.0 | 5.0 | 0.00 | 0.00 | 0.00 | 73 | 1014.3 |
| 20260901221504 | 78 | 356 | 1.0 | 2.0 | 0.00 | 0.00 | 0.00 | 73 | 1014.3 |
| 20260901221003 | 79 | 11 | 1.0 | 2.0 | 0.00 | 0.00 | 0.00 | 73 | 1014.3 |
| 20260901220503 | 79 | 27 | 1.0 | 3.0 | 0.00 | 0.00 | 0.00 | 74 | 1014.3 |
| 20260901220003 | 79 | 279 | 1.0 | 4.0 | 0.00 | 0.00 | 0.00 | 74 | 1014.3 |
| 20260901215503 | 79 | 206 | 2.0 | 5.0 | 0.00 | 0.00 | 0.00 | 74 | 1014.3 |
| 20260901215003 | 79 | 180 | 1.0 | 5.0 | 0.00 | 0.00 | 0.00 | 74 | 1014.3 |
| 20260901214503 | 79 | 360 | 0.0 | 1.0 | 0.00 | 0.00 | 0.00 | 74 | 1014.3 |
| 20260901214004 | 80 | 8 | 1.0 | 3.0 | 0.00 | 0.00 | 0.00 | 74 | 1014.3 |
| 20260901213504 | 80 | 18 | 3.0 | 6.0 | 0.00 | 0.00 | 0.00 | 74 | 1014.3 |
| 20260901213004 | 80 | 30 | 4.0 | 6.0 | 0.00 | 0.00 | 0.00 | 74 | 1014.3 |
| 20260901212504 | 80 | 42 | 4.0 | 6.0 | 0.00 | 0.00 | 0.00 | 73 | 1014.3 |
| 20260901212004 | 80 | 45 | 3.0 | 6.0 | 0.00 | 0.00 | 0.00 | 73 | 1014.3 |
| 20260901211504 | 80 | 53 | 3.0 | 6.0 | 0.00 | 0.00 | 0.00 | 73 | 1014.3 |
| 20260901211213 | 80 | 50 | 3.0 | 6.0 | 0.00 | 0.00 | 0.00 | 73 | 1014.3 |
| 20260901210504 | 80 | 32 | 4.0 | 6.0 | 0.00 | 0.00 | 0.00 | 73 | 1014.3 |
| 20260901210004 | 80 | 9 | 4.0 | 7.0 | 0.00 | 0.00 | 0.00 | 73 | 1014.3 |
| 20260901205504 | 80 | 6 | 5.0 | 7.0 | 0.00 | 0.00 | 0.00 | 73 | 1014.3 |
| 20260901205004 | 79 | 5 | 5.0 | 7.0 | 0.00 | 0.00 | 0.00 | 73 | 1014.3 |
| 20260901204504 | 79 | 2 | 5.0 | 7.0 | 0.00 | 0.00 | 0.00 | 73 | 1014.3 |
| 20260901204004 | 79 | 6 | 5.0 | 7.0 | 0.00 | 0.00 | 0.00 | 72 | 1014.3 |
| 20260901203504 | 79 | 7 | 4.0 | 8.0 | 0.00 | 0.00 | 0.00 | 72 | 1014.3 |
| 20260901203217 | 79 | 3 | 4.0 | 8.0 | 0.00 | 0.00 | 0.00 | 71 | 1014.3 |
| 20260901202504 | 79 | 358 | 3.0 | 5.0 | 0.00 | 0.00 | 0.00 | 70 | 1014.3 |
| 20260901202004 | 79 | 358 | 3.0 | 4.0 | 0.00 | 0.00 | 0.00 | 69 | 1014.3 |
| 20260901201504 | 79 | 360 | 3.0 | 5.0 | 0.00 | 0.00 | 0.00 | 69 | 1014.3 |
| 20260901201004 | 80 | 360 | 4.0 | 5.0 | 0.00 | 0.00 | 0.00 | 68 | 1014.3 |
| 20260901200504 | 80 | 3 | 4.0 | 6.0 | 0.00 | 0.00 | 0.00 | 67 | 1014.3 |
| 20260901200004 | 80 | 2 | 4.0 | 6.0 | 0.00 | 0.00 | 0.00 | 66 | 1014.3 |
| 20260901195503 | 80 | 356 | 3.0 | 6.0 | 0.00 | 0.00 | 0.00 | 64 | 1014.3 |
| 20260901195003 | 81 | 359 | 3.0 | 5.0 | 0.00 | 0.00 | 0.00 | 62 | 1014.3 |
| 20260901194503 | 81 | 360 | 4.0 | 6.0 | 0.00 | 0.00 | 0.00 | 62 | 1014.3 |
| 20260901194003 | 81 | 353 | 3.0 | 6.0 | 0.00 | 0.00 | 0.00 | 60 | 1014.3 |
| 20260901193504 | 82 | 360 | 5.0 | 12.0 | 0.00 | 0.00 | 0.00 | 60 | 1014.3 |
| 20260901193003 | 83 | 7 | 6.0 | 12.0 | 0.00 | 0.00 | 0.00 | 61 | 1014.3 |
| 20260901192503 | 82 | 5 | 5.0 | 8.0 | 0.00 | 0.00 | 0.00 | 61 | 1014.3 |
| 20260901192214 | 82 | 2 | 5.0 | 8.0 | 0.00 | 0.00 | 0.00 | 60 | 1014.3 |
| 20260901191717 | 83 | 2 | 3.0 | 6.0 | 0.00 | 0.00 | 0.00 | 58 | 1014.3 |
| 20260901191003 | 83 | 21 | 3.0 | 5.0 | 0.00 | 0.00 | 0.00 | 55 | 1014.3 |
| 20260901190713 | 84 | 17 | 3.0 | 6.0 | 0.00 | 0.00 | 0.00 | 54 | 1014.3 |
| 20260901190003 | 84 | 5 | 5.0 | 6.0 | 0.00 | 0.00 | 0.00 | 54 | 1014.3 |
| 20260901185503 | 84 | 4 | 4.0 | 5.0 | 0.00 | 0.00 | 0.00 | 53 | 1014.3 |
| 20260901185003 | 84 | 360 | 4.0 | 5.0 | 0.00 | 0.00 | 0.00 | 52 | 1013.3 |
| 20260901184504 | 85 | 3 | 4.0 | 5.0 | 0.00 | 0.00 | 0.00 | 51 | 1013.3 |
| 20260901184212 | 85 | 4 | 4.0 | 6.0 | 0.00 | 0.00 | 0.00 | 51 | 1013.3 |
| 20260901183503 | 85 | 10 | 5.0 | 7.0 | 0.00 | 0.00 | 0.00 | 50 | 1013.3 |
| 20260901183003 | 86 | 6 | 5.0 | 6.0 | 0.00 | 0.00 | 0.00 | 50 | 1013.3 |
| 20260901182504 | 86 | 8 | 4.0 | 5.0 | 0.00 | 0.00 | 0.00 | 49 | 1013.3 |
| 20260901182214 | 86 | 17 | 4.0 | 6.0 | 0.00 | 0.00 | 0.00 | 49 | 1013.3 |
| 20260901181503 | 87 | 12 | 5.0 | 7.0 | 0.00 | 0.00 | 0.00 | 48 | 1013.3 |
| 20260901181003 | 87 | 3 | 4.0 | 6.0 | 0.00 | 0.00 | 0.00 | 46 | 1013.3 |
| 20260901180504 | 88 | 15 | 5.0 | 6.0 | 0.00 | 0.00 | 0.00 | 45 | 1012.3 |
| 20260901180216 | 88 | 16 | 5.0 | 5.0 | 0.00 | 0.00 | 0.00 | 44 | 1012.3 |
| 20260901175504 | 89 | 5 | 5.0 | 8.0 | 0.00 | 0.00 | 0.00 | 41 | 1012.3 |
| 20260901175004 | 89 | 5 | 6.0 | 9.0 | 0.00 | 0.00 | 0.00 | 39 | 1012.3 |
| 20260901174505 | 89 | 360 | 6.0 | 10.0 | 0.00 | 0.00 | 0.00 | 38 | 1012.3 |
| 20260901174005 | 90 | 357 | 7.0 | 10.0 | 0.00 | 0.00 | 0.00 | 37 | 1012.3 |
| 20260901173504 | 90 | 353 | 7.0 | 10.0 | 0.00 | 0.00 | 0.00 | 36 | 1012.3 |
| 20260901173004 | 90 | 354 | 8.0 | 13.0 | 0.00 | 0.00 | 0.00 | 35 | 1012.3 |
| 20260901172504 | 91 | 357 | 8.0 | 13.0 | 0.00 | 0.00 | 0.00 | 34 | 1012.3 |
| 20260901172215 | 91 | 360 | 8.0 | 13.0 | 0.00 | 0.00 | 0.00 | 34 | 1012.3 |
| 20260901171504 | 92 | 350 | 6.0 | 11.0 | 0.00 | 0.00 | 0.00 | 33 | 1012.3 |
| 20260901171004 | 92 | 2 | 6.0 | 10.0 | 0.00 | 0.00 | 0.00 | 41 | 1012.3 |
| 20260901170714 | 92 | 355 | 6.0 | 11.0 | 0.00 | 0.00 | 0.00 | 43 | 1012.3 |
| 20260901170217 | 93 | 350 | 8.0 | 13.0 | 0.00 | 0.00 | 0.00 | 39 | 1012.3 |
| 20260901165504 | 94 | 353 | 5.0 | 12.0 | 0.00 | 0.00 | 0.00 | 36 | 1012.3 |
| 20260901165004 | 94 | 341 | 5.0 | 12.0 | 0.00 | 0.00 | 0.00 | 37 | 1012.3 |
| 20260901164716 | 94 | 348 | 6.0 | 10.0 | 0.00 | 0.00 | 0.00 | 33 | 1012.3 |
| 20260901164003 | 95 | 10 | 8.0 | 14.0 | 0.00 | 0.00 | 0.00 | 27 | 1012.3 |
| 20260901163505 | 95 | 18 | 9.0 | 13.0 | 0.00 | 0.00 | 0.00 | 27 | 1012.3 |
| 20260901163003 | 96 | 37 | 9.0 | 14.0 | 0.00 | 0.00 | 0.00 | 27 | 1012.3 |
| 20260901162713 | 96 | 31 | 10.0 | 15.0 | 0.00 | 0.00 | 0.00 | 27 | 1012.3 |
| 20260901162004 | 96 | 13 | 11.0 | 18.0 | 0.00 | 0.00 | 0.00 | 26 | 1012.3 |
| 20260901161504 | 96 | 24 | 10.0 | 18.0 | 0.00 | 0.00 | 0.00 | 27 | 1012.3 |
| 20260901161004 | 97 | 25 | 10.0 | 15.0 | 0.00 | 0.00 | 0.00 | 26 | 1012.3 |
| 20260901160504 | 97 | 17 | 11.0 | 15.0 | 0.00 | 0.00 | 0.00 | 26 | 1012.3 |
| 20260901160004 | 97 | 12 | 10.0 | 14.0 | 0.00 | 0.00 | 0.00 | 26 | 1012.3 |
| 20260901155503 | 98 | 10 | 9.0 | 12.0 | 0.00 | 0.00 | 0.00 | 26 | 1012.3 |
| 20260901155214 | 98 | 14 | 8.0 | 14.0 | 0.00 | 0.00 | 0.00 | 26 | 1012.3 |
| 20260901154716 | 98 | 28 | 9.0 | 14.0 | 0.00 | 0.00 | 0.00 | 25 | 1012.3 |
| 20260901154003 | 98 | 37 | 9.0 | 14.0 | 0.00 | 0.00 | 0.00 | 23 | 1012.3 |
| 20260901153503 | 98 | 30 | 10.0 | 13.0 | 0.00 | 0.00 | 0.00 | 23 | 1011.3 |
| 20260901153005 | 98 | 35 | 10.0 | 13.0 | 0.00 | 0.00 | 0.00 | 23 | 1011.3 |
| 20260901152503 | 98 | 41 | 9.0 | 12.0 | 0.00 | 0.00 | 0.00 | 23 | 1011.3 |
| 20260901152003 | 98 | 31 | 8.0 | 18.0 | 0.00 | 0.00 | 0.00 | 22 | 1012.3 |
| 20260901151503 | 98 | 27 | 7.0 | 18.0 | 0.00 | 0.00 | 0.00 | 23 | 1012.3 |
| 20260901151003 | 98 | 321 | 5.0 | 10.0 | 0.00 | 0.00 | 0.00 | 29 | 1012.3 |
| 20260901150503 | 98 | 294 | 6.0 | 8.0 | 0.00 | 0.00 | 0.00 | 42 | 1012.3 |
| 20260901150003 | 98 | 283 | 7.0 | 10.0 | 0.00 | 0.00 | 0.00 | 38 | 1012.3 |
| 20260901145504 | 98 | 281 | 8.0 | 14.0 | 0.00 | 0.00 | 0.00 | 39 | 1012.3 |
| 20260901145214 | 98 | 274 | 9.0 | 19.0 | 0.00 | 0.00 | 0.00 | 40 | 1012.3 |
| 20260901144504 | 97 | 268 | 9.0 | 19.0 | 0.00 | 0.00 | 0.00 | 41 | 1012.3 |
| 20260901144003 | 96 | 253 | 9.0 | 17.0 | 0.00 | 0.00 | 0.00 | 43 | 1012.3 |
| 20260901143503 | 96 | 253 | 11.0 | 17.0 | 0.00 | 0.00 | 0.00 | 41 | 1011.3 |
| 20260901143003 | 95 | 261 | 11.0 | 17.0 | 0.00 | 0.00 | 0.00 | 42 | 1011.3 |
| 20260901142503 | 95 | 236 | 9.0 | 12.0 | 0.00 | 0.00 | 0.00 | 44 | 1011.3 |
| 20260901142003 | 95 | 254 | 9.0 | 15.0 | 0.00 | 0.00 | 0.00 | 49 | 1012.3 |
| 20260901141503 | 94 | 263 | 9.0 | 15.0 | 0.00 | 0.00 | 0.00 | 46 | 1012.3 |
| 20260901141218 | 94 | 266 | 9.0 | 15.0 | 0.00 | 0.00 | 0.00 | 50 | 1012.3 |
| 20260901140504 | 92 | 252 | 8.0 | 11.0 | 0.00 | 0.00 | 0.00 | 57 | 1012.3 |
| 20260901140004 | 90 | 230 | 9.0 | 13.0 | 0.00 | 0.00 | 0.00 | 60 | 1012.3 |
| 20260901135504 | 92 | 222 | 10.0 | 13.0 | 0.00 | 0.00 | 0.00 | 57 | 1012.3 |
| 20260901135004 | 91 | 253 | 11.0 | 15.0 | 0.00 | 0.00 | 0.00 | 58 | 1012.3 |
| 20260901134504 | 91 | 270 | 13.0 | 15.0 | 0.00 | 0.00 | 0.00 | 57 | 1012.3 |
| 20260901134004 | 91 | 259 | 13.0 | 18.0 | 0.00 | 0.00 | 0.00 | 57 | 1012.3 |
| 20260901133504 | 91 | 258 | 12.0 | 18.0 | 0.00 | 0.00 | 0.00 | 57 | 1012.3 |
| 20260901133217 | 91 | 270 | 12.0 | 18.0 | 0.00 | 0.00 | 0.00 | 57 | 1012.3 |
| 20260901132504 | 91 | 262 | 13.0 | 17.0 | 0.00 | 0.00 | 0.00 | 55 | 1012.3 |
| 20260901132004 | 92 | 263 | 13.0 | 16.0 | 0.00 | 0.00 | 0.00 | 52 | 1012.3 |
| 20260901131504 | 92 | 258 | 15.0 | 21.0 | 0.00 | 0.00 | 0.00 | 50 | 1012.3 |
| 20260901131004 | 92 | 230 | 14.0 | 21.0 | 0.00 | 0.00 | 0.00 | 52 | 1012.3 |
| 20260901130504 | 92 | 198 | 13.0 | 21.0 | 0.00 | 0.00 | 0.00 | 56 | 1012.3 |
| 20260901130004 | 92 | 183 | 12.0 | 21.0 | 0.00 | 0.00 | 0.00 | 54 | 1012.3 |
| 20260901125504 | 92 | 216 | 11.0 | 21.0 | 0.00 | 0.00 | 0.00 | 54 | 1012.3 |
| 20260901125004 | 92 | 238 | 11.0 | 15.0 | 0.00 | 0.00 | 0.00 | 55 | 1013.3 |
| 20260901124504 | 92 | 207 | 13.0 | 23.0 | 0.00 | 0.00 | 0.00 | 56 | 1013.3 |
| 20260901124004 | 90 | 204 | 13.0 | 23.0 | 0.00 | 0.00 | 0.00 | 59 | 1013.3 |
| 20260901123504 | 89 | 214 | 11.0 | 17.0 | 0.00 | 0.00 | 0.00 | 63 | 1013.3 |
| 20260901123003 | 88 | 221 | 12.0 | 17.0 | 0.00 | 0.00 | 0.00 | 63 | 1013.3 |
| 20260901122503 | 89 | 225 | 11.0 | 15.0 | 0.00 | 0.00 | 0.00 | 62 | 1013.3 |
| 20260901122004 | 89 | 193 | 12.0 | 19.0 | 0.00 | 0.00 | 0.00 | 62 | 1013.3 |
| 20260901121504 | 89 | 180 | 13.0 | 19.0 | 0.00 | 0.00 | 0.00 | 62 | 1013.3 |
| 20260901121214 | 89 | 189 | 13.0 | 18.0 | 0.00 | 0.00 | 0.00 | 61 | 1013.3 |
| 20260901120504 | 90 | 211 | 13.0 | 18.0 | 0.00 | 0.00 | 0.00 | 61 | 1013.3 |
| 20260901120004 | 89 | 188 | 12.0 | 18.0 | 0.00 | 0.00 | 0.00 | 61 | 1013.3 |
| 20260901115503 | 89 | 180 | 13.0 | 17.0 | 0.00 | 0.00 | 0.00 | 61 | 1013.3 |
| 20260901115216 | 89 | 180 | 12.0 | 17.0 | 0.00 | 0.00 | 0.00 | 61 | 1013.3 |
| 20260901114504 | 89 | 180 | 12.0 | 15.0 | 0.00 | 0.00 | 0.00 | 61 | 1013.3 |
| 20260901114003 | 89 | 180 | 12.0 | 17.0 | 0.00 | 0.00 | 0.00 | 61 | 1013.3 |
| 20260901113715 | 89 | 180 | 13.0 | 17.0 | 0.00 | 0.00 | 0.00 | 61 | 1013.3 |
| 20260901113003 | 90 | 189 | 13.0 | 15.0 | 0.00 | 0.00 | 0.00 | 60 | 1013.3 |
| 20260901112503 | 90 | 192 | 12.0 | 15.0 | 0.00 | 0.00 | 0.00 | 58 | 1013.3 |
| 20260901112003 | 90 | 183 | 12.0 | 15.0 | 0.00 | 0.00 | 0.00 | 57 | 1013.3 |
| 20260901111717 | 90 | 188 | 12.0 | 15.0 | 0.00 | 0.00 | 0.00 | 56 | 1013.3 |
| 20260901111003 | 90 | 219 | 10.0 | 17.0 | 0.00 | 0.00 | 0.00 | 55 | 1013.3 |
| 20260901110503 | 90 | 211 | 10.0 | 17.0 | 0.00 | 0.00 | 0.00 | 53 | 1013.3 |
| 20260901110003 | 90 | 199 | 11.0 | 14.0 | 0.00 | 0.00 | 0.00 | 56 | 1013.3 |
| 20260901105503 | 90 | 217 | 11.0 | 15.0 | 0.00 | 0.00 | 0.00 | 56 | 1013.3 |
| 20260901105003 | 89 | 203 | 12.0 | 17.0 | 0.00 | 0.00 | 0.00 | 56 | 1013.3 |
| 20260901104503 | 88 | 207 | 13.0 | 17.0 | 0.00 | 0.00 | 0.00 | 57 | 1013.3 |
| 20260901104003 | 89 | 236 | 11.0 | 15.0 | 0.00 | 0.00 | 0.00 | 58 | 1013.3 |
| 20260901103503 | 88 | 228 | 10.0 | 13.0 | 0.00 | 0.00 | 0.00 | 59 | 1013.3 |
| 20260901103003 | 88 | 202 | 11.0 | 18.0 | 0.00 | 0.00 | 0.00 | 60 | 1013.3 |
| 20260901102503 | 88 | 200 | 10.0 | 18.0 | 0.00 | 0.00 | 0.00 | 62 | 1013.3 |
| 20260901102003 | 87 | 190 | 9.0 | 16.0 | 0.00 | 0.00 | 0.00 | 64 | 1013.3 |
| 20260901101503 | 87 | 183 | 11.0 | 16.0 | 0.00 | 0.00 | 0.00 | 61 | 1013.3 |
| 20260901101003 | 87 | 180 | 11.0 | 16.0 | 0.00 | 0.00 | 0.00 | 60 | 1013.3 |
| 20260901100505 | 87 | 178 | 9.0 | 12.0 | 0.00 | 0.00 | 0.00 | 59 | 1013.3 |
| 20260901100004 | 88 | 173 | 9.0 | 14.0 | 0.00 | 0.00 | 0.00 | 55 | 1013.3 |
| 20260901095504 | 88 | 164 | 9.0 | 14.0 | 0.00 | 0.00 | 0.00 | 54 | 1013.3 |
| 20260901095004 | 89 | 156 | 8.0 | 12.0 | 0.00 | 0.00 | 0.00 | 53 | 1013.3 |
| 20260901094504 | 90 | 159 | 7.0 | 10.0 | 0.00 | 0.00 | 0.00 | 52 | 1013.3 |
| 20260901094218 | 90 | 152 | 5.0 | 8.0 | 0.00 | 0.00 | 0.00 | 52 | 1013.3 |
| 20260901093504 | 91 | 124 | 5.0 | 5.0 | 0.00 | 0.00 | 0.00 | 51 | 1013.3 |
| 20260901093214 | 91 | 74 | 6.0 | 13.0 | 0.00 | 0.00 | 0.00 | 50 | 1013.3 |
| 20260901092504 | 92 | 41 | 11.0 | 18.0 | 0.00 | 0.00 | 0.00 | 45 | 1013.3 |
| 20260901092004 | 92 | 43 | 9.0 | 18.0 | 0.00 | 0.00 | 0.00 | 45 | 1013.3 |
| 20260901091504 | 92 | 52 | 9.0 | 18.0 | 0.00 | 0.00 | 0.00 | 44 | 1013.3 |
| 20260901091004 | 92 | 74 | 8.0 | 15.0 | 0.00 | 0.00 | 0.00 | 46 | 1013.3 |
| 20260901090505 | 91 | 76 | 7.0 | 15.0 | 0.00 | 0.00 | 0.00 | 48 | 1013.3 |
| 20260901090004 | 91 | 54 | 7.0 | 15.0 | 0.00 | 0.00 | 0.00 | 47 | 1013.3 |
| 20260901085504 | 91 | 56 | 9.0 | 15.0 | 0.00 | 0.00 | 0.00 | 48 | 1013.3 |
| 20260901085004 | 91 | 59 | 11.0 | 15.0 | 0.00 | 0.00 | 0.00 | 48 | 1013.3 |
| 20260901084716 | 90 | 60 | 12.0 | 18.0 | 0.00 | 0.00 | 0.00 | 47 | 1013.3 |
| 20260901084004 | 90 | 64 | 11.0 | 18.0 | 0.00 | 0.00 | 0.00 | 47 | 1013.3 |
| 20260901083503 | 90 | 64 | 8.0 | 15.0 | 0.00 | 0.00 | 0.00 | 48 | 1013.3 |
| 20260901083004 | 90 | 53 | 7.0 | 11.0 | 0.00 | 0.00 | 0.00 | 48 | 1013.3 |
| 20260901082503 | 90 | 62 | 9.0 | 16.0 | 0.00 | 0.00 | 0.00 | 49 | 1013.3 |
| 20260901082216 | 90 | 62 | 9.0 | 16.0 | 0.00 | 0.00 | 0.00 | 49 | 1013.3 |
| 20260901081505 | 89 | 63 | 6.0 | 11.0 | 0.00 | 0.00 | 0.00 | 50 | 1012.3 |
| 20260901081003 | 89 | 71 | 7.0 | 11.0 | 0.00 | 0.00 | 0.00 | 50 | 1012.3 |
| 20260901080503 | 89 | 53 | 6.0 | 9.0 | 0.00 | 0.00 | 0.00 | 51 | 1012.3 |
| 20260901080003 | 89 | 29 | 7.0 | 12.0 | 0.00 | 0.00 | 0.00 | 53 | 1012.3 |
| 20260901075503 | 88 | 39 | 8.0 | 12.0 | 0.00 | 0.00 | 0.00 | 53 | 1012.3 |
| 20260901075213 | 88 | 39 | 9.0 | 14.0 | 0.00 | 0.00 | 0.00 | 53 | 1012.3 |
| 20260901074504 | 88 | 44 | 10.0 | 14.0 | 0.00 | 0.00 | 0.00 | 54 | 1012.3 |
| 20260901074004 | 87 | 39 | 10.0 | 12.0 | 0.00 | 0.00 | 0.00 | 56 | 1012.3 |
| 20260901073503 | 87 | 35 | 11.0 | 14.0 | 0.00 | 0.00 | 0.00 | 57 | 1012.3 |
| 20260901073216 | 87 | 32 | 10.0 | 14.0 | 0.00 | 0.00 | 0.00 | 57 | 1012.3 |
| 20260901072503 | 86 | 39 | 8.0 | 14.0 | 0.00 | 0.00 | 0.00 | 58 | 1012.3 |
| 20260901072003 | 86 | 48 | 9.0 | 14.0 | 0.00 | 0.00 | 0.00 | 61 | 1012.3 |
| 20260901071503 | 86 | 48 | 9.0 | 16.0 | 0.00 | 0.00 | 0.00 | 62 | 1012.3 |
| 20260901071003 | 86 | 35 | 8.0 | 16.0 | 0.00 | 0.00 | 0.00 | 63 | 1012.3 |
| 20260901070504 | 85 | 38 | 7.0 | 12.0 | 0.00 | 0.00 | 0.00 | 64 | 1012.3 |
| 20260901070003 | 85 | 52 | 7.0 | 12.0 | 0.00 | 0.00 | 0.00 | 66 | 1012.3 |
| 20260901065503 | 85 | 53 | 8.0 | 11.0 | 0.00 | 0.00 | 0.00 | 68 | 1012.3 |
| 20260901065003 | 84 | 39 | 10.0 | 16.0 | 0.00 | 0.00 | 0.00 | 69 | 1012.3 |
| 20260901064503 | 84 | 39 | 10.0 | 16.0 | 0.00 | 0.00 | 0.00 | 71 | 1012.3 |
| 20260901064003 | 84 | 35 | 8.0 | 14.0 | 0.00 | 0.00 | 0.00 | 73 | 1012.3 |
| 20260901063503 | 83 | 32 | 9.0 | 13.0 | 0.00 | 0.00 | 0.00 | 74 | 1012.3 |
| 20260901063003 | 83 | 32 | 9.0 | 15.0 | 0.00 | 0.00 | 0.00 | 75 | 1012.3 |
| 20260901062503 | 83 | 31 | 10.0 | 16.0 | 0.00 | 0.00 | 0.00 | 76 | 1012.3 |
| 20260901062004 | 83 | 13 | 10.0 | 16.0 | 0.00 | 0.00 | 0.00 | 76 | 1012.3 |
| 20260901061715 | 83 | 7 | 9.0 | 16.0 | 0.00 | 0.00 | 0.00 | 76 | 1012.3 |
| 20260901061004 | 82 | 19 | 11.0 | 20.0 | 0.00 | 0.00 | 0.00 | 77 | 1012.3 |
| 20260901060716 | 82 | 26 | 11.0 | 20.0 | 0.00 | 0.00 | 0.00 | 78 | 1012.3 |
| 20260901060214 | 82 | 30 | 11.0 | 20.0 | 0.00 | 0.00 | 0.00 | 80 | 1012.3 |
| 20260901055504 | 82 | 15 | 9.0 | 12.0 | 0.00 | 0.00 | 0.00 | 81 | 1012.3 |
| 20260901055004 | 81 | 12 | 10.0 | 15.0 | 0.00 | 0.00 | 0.00 | 82 | 1012.3 |
| 20260901054718 | 81 | 11 | 10.0 | 15.0 | 0.00 | 0.00 | 0.00 | 82 | 1012.3 |
| 20260901054004 | 81 | 10 | 7.0 | 10.0 | 0.00 | 0.00 | 0.00 | 83 | 1012.3 |
| 20260901053504 | 81 | 6 | 6.0 | 9.0 | 0.00 | 0.00 | 0.00 | 83 | 1012.3 |
| 20260901053004 | 80 | 360 | 5.0 | 9.0 | 0.00 | 0.00 | 0.00 | 84 | 1012.3 |
| 20260901052504 | 80 | 350 | 5.0 | 8.0 | 0.00 | 0.00 | 0.00 | 84 | 1012.3 |
| 20260901052004 | 80 | 348 | 5.0 | 9.0 | 0.00 | 0.00 | 0.00 | 84 | 1012.3 |
| 20260901051504 | 80 | 355 | 5.0 | 9.0 | 0.00 | 0.00 | 0.00 | 84 | 1012.3 |
| 20260901051004 | 80 | 5 | 5.0 | 8.0 | 0.00 | 0.00 | 0.00 | 84 | 1012.3 |
| 20260901050716 | 80 | 353 | 5.0 | 8.0 | 0.00 | 0.00 | 0.00 | 84 | 1012.3 |
| 20260901050004 | 79 | 351 | 3.0 | 5.0 | 0.00 | 0.00 | 0.00 | 84 | 1012.3 |
| 20260901045504 | 79 | 6 | 2.0 | 4.0 | 0.00 | 0.00 | 0.00 | 83 | 1012.3 |
| 20260901045004 | 79 | 6 | 3.0 | 5.0 | 0.00 | 0.00 | 0.00 | 83 | 1012.3 |
| 20260901044506 | 80 | 14 | 6.0 | 18.0 | 0.00 | 0.00 | 0.00 | 84 | 1012.3 |